Regional Weather Roundup
Issued by NWS

Home | Current Version | Previous Version | Text Only | Print | Product List | Glossary On
Versions: 1 2 3 4 5 6 7 8 9 10 11 12 13 14 15 16 17 18 19 20 21 22 23 24 25 26 27 28 29 30 31 32 33 34 35 36 37 38 39 40 41 42 43 44 45 46 47 48 49 50
000
ASUS43 KBIS 022202
RWRND

NORTH DAKOTA REGIONAL WEATHER ROUNDUP
NATIONAL WEATHER SERVICE BISMARCK ND
500 PM CDT WED SEP 02 2015

NOTE: "FAIR" INDICATES FEW OR NO CLOUDS BELOW 12,000 FEET WITH NO
SIGNIFICANT WEATHER AND/OR OBSTRUCTIONS TO VISIBILITY.


NDZ001>003-009>011-017-022300-
NORTHWEST NORTH DAKOTA

CITY           SKY/WX    TMP DP  RH WIND       PRES   REMARKS
WILLISTON      MOSUNNY   99  38  12 S6        29.64F HX  94
MINOT          SUNNY     94  56  27 SE16G22   29.68F HX  92
MINOT AFB      SUNNY     96  57  27 S17       29.67F HX  94
$$

NDZ018>021-031>035-040>046-022300-
SOUTHWEST NORTH DAKOTA

CITY           SKY/WX    TMP DP  RH WIND       PRES   REMARKS
BISMARCK       SUNNY     93  59  31 SE16      29.72F HX  92
DICKINSON      SUNNY     97  41  14 S10G22    29.70F HX  92
GARRISON         N/A     93  60  33 S12       29.70F HX  93
HETTINGER ARPT SUNNY     96  49  20 S9        29.75F HX  93
$$

NDZ004>008-012>016-024-026-027-054-022300-
NORTHEAST NORTH DAKOTA

CITY           SKY/WX    TMP DP  RH WIND       PRES   REMARKS
GRAND FORKS    SUNNY     89  63  41 S17G24    29.75F HX  90
GRND FRKS AFB  SUNNY     88  66  48 SE16      29.77F HX  90
DEVILS LAKE    SUNNY     84  66  54 SE10      29.75S
$$

NDZ022-023-025-028>030-036>039-047>053-022300-
SOUTHEAST NORTH DAKOTA

CITY           SKY/WX    TMP DP  RH WIND       PRES   REMARKS
FARGO          SUNNY     89  65  44 SE16G23   29.78S HX  91
JAMESTOWN      SUNNY     89  68  49 SE16      29.76S HX  93
$$




USA.gov is the U.S. government's official web portal to all federal, state and local government web resources and services.